Location: Nelson
(41.2830°S, 173.2830°E)
Time: 09:55:40
(UTC+13:00)

Cosmos 1733 Rocket - Pass Details

Date: 24 January 2019
Orbit: 604 x 628 km, 82.5° (Epoch: 21 October)

Event Time Altitude Azimuth Distance (km) Brightness Sun altitude
Rises 22:51:03 0° 175° (S) 2,924 7.2 -18.1°
Reaches altitude 10° 22:53:42 10° 160° (SSE) 2,005 6.0 -18.4°
Maximum altitude 22:57:15 23° 107° (ESE) 1,317 4.5 -18.8°
Enters shadow 22:57:42 23° 98° (E) 1,328 4.4 -18.9°
